Time,TemperatureF,DewpointF,PressureIn,WindDirection,WindDirectionDegrees,WindSpeedMPH,WindSpeedGustMPH,Humidity,HourlyPrecipIn,Conditions,Clouds,dailyrainin,SoftwareType,DateUTC
2014-01-19 00:01:00,26.9,23.7,29.83,SSE,149,0.0,0.0,87,0.00,,OVC055,0.19,VWS V14.01,2014-01-19 05:01:00,
2014-01-19 00:03:00,26.8,23.6,29.83,SSE,149,0.0,0.0,88,0.00,,OVC055,0.00,VWS V14.01,2014-01-19 05:03:00,
2014-01-19 00:04:00,26.8,23.4,29.83,SSE,149,0.0,0.0,87,0.00,,OVC055,0.00,VWS V14.01,2014-01-19 05:04:00,
2014-01-19 00:09:00,26.7,23.5,29.84,SSE,149,0.0,0.0,88,0.00,,OVC055,0.00,VWS V14.01,2014-01-19 05:09:00,
2014-01-19 00:14:00,26.6,23.4,29.83,SSE,149,0.0,0.0,88,0.00,,OVC055,0.00,VWS V14.01,2014-01-19 05:14:00,
2014-01-19 00:19:00,26.6,23.3,29.83,SSE,149,0.0,0.0,87,0.00,,OVC055,0.00,VWS V14.01,2014-01-19 05:19:00,
2014-01-19 00:24:00,26.5,23.1,29.82,SSE,149,0.0,0.0,87,0.00,,OVC055,0.00,VWS V14.01,2014-01-19 05:24:00,
2014-01-19 00:29:00,26.5,23.3,29.82,SSE,149,0.0,0.0,88,0.00,,OVC055,0.00,VWS V14.01,2014-01-19 05:29:00,
2014-01-19 00:35:00,26.4,23.2,29.82,SSE,149,0.0,0.0,88,0.00,,OVC055,0.00,VWS V14.01,2014-01-19 05:35:00,
2014-01-19 00:40:00,26.3,23.2,29.82,SSE,149,0.0,0.0,88,0.00,,OVC055,0.00,VWS V14.01,2014-01-19 05:40:00,
2014-01-19 00:45:00,26.2,22.9,29.81,SSE,149,0.0,0.0,87,0.00,,OVC055,0.00,VWS V14.01,2014-01-19 05:45:00,
2014-01-19 00:50:00,26.2,23.1,29.81,SSE,149,0.0,0.0,88,0.00,,OVC055,0.00,VWS V14.01,2014-01-19 05:50:00,
2014-01-19 00:55:00,26.2,23.1,29.80,SSE,149,0.0,0.0,88,0.00,,OVC055,0.00,VWS V14.01,2014-01-19 05:55:00,
2014-01-19 01:00:00,26.0,22.9,29.80,SSE,149,0.0,0.0,88,0.00,,OVC055,0.00,VWS V14.01,2014-01-19 06:00:00,
2014-01-19 01:05:00,25.9,23.1,29.80,SSE,149,0.0,0.0,89,0.00,,BKN050,0.00,VWS V14.01,2014-01-19 06:05:00,
2014-01-19 01:10:00,25.8,22.7,29.79,SSE,149,0.0,0.0,88,0.00,,BKN050,0.00,VWS V14.01,2014-01-19 06:10:00,
2014-01-19 01:15:00,25.8,22.8,29.79,SSE,149,0.0,0.0,88,0.00,,BKN050,0.00,VWS V14.01,2014-01-19 06:15:00,
2014-01-19 01:20:00,25.7,22.6,29.79,SSE,149,0.0,0.0,88,0.00,,BKN050,0.00,VWS V14.01,2014-01-19 06:20:00,
2014-01-19 01:25:00,25.8,22.7,29.79,SSE,149,0.0,0.0,88,0.00,,BKN050,0.00,VWS V14.01,2014-01-19 06:25:00,
2014-01-19 01:30:00,25.7,22.7,29.79,SSE,149,0.0,0.0,88,0.00,,BKN050,0.00,VWS V14.01,2014-01-19 06:30:00,
2014-01-19 01:35:00,25.7,22.6,29.79,SSE,149,0.0,0.0,88,0.00,,BKN050,0.00,VWS V14.01,2014-01-19 06:35:00,
2014-01-19 01:40:00,25.6,22.6,29.79,SSE,149,0.0,0.0,88,0.00,,BKN050,0.00,VWS V14.01,2014-01-19 06:40:00,
2014-01-19 01:45:00,25.6,22.6,29.80,SSE,149,0.0,0.0,88,0.00,,BKN050,0.00,VWS V14.01,2014-01-19 06:45:00,
2014-01-19 01:50:00,25.6,22.6,29.80,SSE,149,0.0,0.0,88,0.00,,BKN050,0.00,VWS V14.01,2014-01-19 06:50:00,
2014-01-19 01:55:00,25.5,22.5,29.81,SSE,149,0.0,0.0,88,0.00,,BKN050,0.00,VWS V14.01,2014-01-19 06:55:00,
2014-01-19 02:00:00,25.5,22.6,29.81,SSE,149,0.0,0.0,89,0.00,,CLR,0.00,VWS V14.01,2014-01-19 07:00:00,
2014-01-19 02:05:00,25.3,22.4,29.80,SSE,149,0.0,0.0,88,0.00,,CLR,0.00,VWS V14.01,2014-01-19 07:05:00,
2014-01-19 02:10:00,25.3,22.4,29.81,SSE,149,0.0,0.0,89,0.00,,CLR,0.00,VWS V14.01,2014-01-19 07:10:00,
2014-01-19 02:15:00,25.3,22.5,29.81,SSE,149,0.0,0.0,89,0.00,,CLR,0.00,VWS V14.01,2014-01-19 07:15:00,
2014-01-19 02:20:00,25.3,22.5,29.81,SSE,149,0.0,0.0,89,0.00,,CLR,0.00,VWS V14.01,2014-01-19 07:20:00,
2014-01-19 02:25:00,25.3,22.5,29.81,SSE,149,0.0,0.0,89,0.00,,CLR,0.00,VWS V14.01,2014-01-19 07:25:00,
2014-01-19 02:30:00,25.2,22.3,29.81,SSE,149,0.0,0.0,89,0.00,,CLR,0.00,VWS V14.01,2014-01-19 07:30:00,
2014-01-19 02:36:00,25.2,22.4,29.81,SSE,149,0.0,0.0,89,0.00,,CLR,0.00,VWS V14.01,2014-01-19 07:36:00,
2014-01-19 02:41:00,25.2,22.5,29.81,SSE,149,0.0,0.0,89,0.00,,CLR,0.00,VWS V14.01,2014-01-19 07:41:00,
2014-01-19 02:46:00,25.2,22.5,29.81,SSE,149,0.0,0.0,89,0.00,,CLR,0.00,VWS V14.01,2014-01-19 07:46:00,
2014-01-19 02:51:00,25.1,22.5,29.82,SSE,149,0.0,0.0,90,0.00,,CLR,0.00,VWS V14.01,2014-01-19 07:51:00,
2014-01-19 02:56:00,25.1,22.4,29.82,SSE,149,0.0,0.0,89,0.00,,CLR,0.00,VWS V14.01,2014-01-19 07:56:00,
2014-01-19 03:01:00,25.1,22.4,29.81,SSE,149,0.0,0.0,89,0.00,,CLR,0.00,VWS V14.01,2014-01-19 08:01:00,
2014-01-19 03:06:00,25.1,22.4,29.81,SSE,149,0.0,0.0,89,0.00,,CLR,0.00,VWS V14.01,2014-01-19 08:06:00,
2014-01-19 03:11:00,25.1,22.4,29.81,SSE,149,0.0,0.0,89,0.00,,CLR,0.00,VWS V14.01,2014-01-19 08:11:00,
2014-01-19 03:16:00,25.1,22.5,29.80,SSE,149,0.0,0.0,90,0.00,,CLR,0.00,VWS V14.01,2014-01-19 08:16:00,
2014-01-19 03:21:00,25.0,22.3,29.80,SSE,149,0.0,0.0,89,0.00,,CLR,0.00,VWS V14.01,2014-01-19 08:21:00,
2014-01-19 03:26:00,25.1,22.5,29.81,SSE,149,0.0,0.0,90,0.00,,CLR,0.00,VWS V14.01,2014-01-19 08:26:00,
2014-01-19 03:31:00,25.1,22.5,29.81,SSE,149,0.0,0.0,90,0.00,,CLR,0.00,VWS V14.01,2014-01-19 08:31:00,
2014-01-19 03:36:00,25.1,22.5,29.81,SSE,149,0.0,0.0,90,0.00,,CLR,0.00,VWS V14.01,2014-01-19 08:36:00,
2014-01-19 03:41:00,25.1,22.4,29.81,SSE,149,0.0,0.0,89,0.00,,CLR,0.00,VWS V14.01,2014-01-19 08:41:00,
2014-01-19 03:46:00,25.1,22.5,29.81,SSE,149,0.0,0.0,90,0.00,,CLR,0.00,VWS V14.01,2014-01-19 08:46:00,
2014-01-19 03:51:00,25.1,22.4,29.81,SSE,149,0.0,0.0,89,0.00,,CLR,0.00,VWS V14.01,2014-01-19 08:51:00,
2014-01-19 03:56:00,25.1,22.3,29.80,SSE,149,0.0,0.0,89,0.00,,CLR,0.00,VWS V14.01,2014-01-19 08:56:00,
2014-01-19 04:01:00,25.1,22.2,29.80,SSE,149,0.0,0.0,89,0.00,,BKN041,0.00,VWS V14.01,2014-01-19 09:01:00,
2014-01-19 04:06:00,25.1,22.2,29.80,SSE,149,0.0,0.0,89,0.00,,BKN041,0.00,VWS V14.01,2014-01-19 09:06:00,
2014-01-19 04:11:00,25.1,22.2,29.80,SSE,149,0.0,0.0,89,0.00,,BKN041,0.00,VWS V14.01,2014-01-19 09:11:00,
2014-01-19 04:16:00,25.0,21.9,29.80,SSE,149,0.0,0.0,88,0.00,,BKN041,0.00,VWS V14.01,2014-01-19 09:16:00,
2014-01-19 04:21:00,25.0,22.0,29.80,SSE,149,0.0,0.0,88,0.00,,BKN041,0.00,VWS V14.01,2014-01-19 09:21:00,
2014-01-19 04:26:00,25.0,21.8,29.80,SSE,149,0.0,0.0,87,0.00,,BKN041,0.00,VWS V14.01,2014-01-19 09:26:00,
2014-01-19 04:31:00,25.0,21.9,29.79,SSE,149,0.0,0.0,88,0.00,,BKN041,0.00,VWS V14.01,2014-01-19 09:31:00,
2014-01-19 04:37:00,25.0,22.0,29.80,SSE,149,0.0,0.0,88,0.00,,BKN041,0.00,VWS V14.01,2014-01-19 09:37:00,
2014-01-19 04:42:00,25.0,22.0,29.79,SSE,149,0.0,0.0,88,0.00,,BKN041,0.00,VWS V14.01,2014-01-19 09:42:00,
2014-01-19 04:47:00,25.1,22.1,29.79,SSE,149,0.0,0.0,88,0.00,,BKN041,0.00,VWS V14.01,2014-01-19 09:47:00,
2014-01-19 04:52:00,25.0,21.9,29.79,SSE,149,0.0,0.0,88,0.00,,BKN041,0.00,VWS V14.01,2014-01-19 09:52:00,
2014-01-19 04:57:00,25.0,21.9,29.79,SSE,149,0.0,0.0,88,0.00,,BKN041,0.00,VWS V14.01,2014-01-19 09:57:00,
2014-01-19 05:02:00,25.1,22.0,29.79,SSE,149,0.0,0.0,88,0.00,,SCT120,0.00,VWS V14.01,2014-01-19 10:02:00,
2014-01-19 05:07:00,25.1,22.0,29.79,SSE,149,0.0,0.0,88,0.00,,SCT120,0.00,VWS V14.01,2014-01-19 10:07:00,
2014-01-19 05:12:00,25.1,21.9,29.79,SSE,149,0.0,0.0,87,0.00,,SCT120,0.00,VWS V14.01,2014-01-19 10:12:00,
2014-01-19 05:17:00,25.1,22.0,29.80,SSE,149,0.0,0.0,88,0.00,,SCT120,0.00,VWS V14.01,2014-01-19 10:17:00,
2014-01-19 05:22:00,25.1,21.9,29.80,SSE,149,0.0,0.0,88,0.00,,SCT120,0.00,VWS V14.01,2014-01-19 10:22:00,
2014-01-19 05:27:00,25.0,21.7,29.80,SSE,149,0.0,0.0,87,0.00,,SCT120,0.00,VWS V14.01,2014-01-19 10:27:00,
2014-01-19 05:32:00,25.1,21.9,29.80,SSE,149,0.0,0.0,87,0.00,,SCT120,0.00,VWS V14.01,2014-01-19 10:32:00,
2014-01-19 05:37:00,25.1,22.0,29.80,SSE,149,0.0,0.0,88,0.00,,SCT120,0.00,VWS V14.01,2014-01-19 10:37:00,
2014-01-19 05:42:00,25.0,21.6,29.80,SSE,149,0.0,0.0,87,0.00,,SCT120,0.00,VWS V14.01,2014-01-19 10:42:00,
2014-01-19 05:47:00,25.0,21.7,29.80,SSE,149,0.0,0.0,87,0.00,,SCT120,0.00,VWS V14.01,2014-01-19 10:47:00,
2014-01-19 05:52:00,24.9,21.6,29.79,SSE,149,0.0,0.0,87,0.00,,SCT120,0.00,VWS V14.01,2014-01-19 10:52:00,
2014-01-19 05:58:00,25.1,21.8,29.80,SSE,149,0.0,0.0,87,0.00,,SCT120,0.00,VWS V14.01,2014-01-19 10:58:00,
2014-01-19 06:03:00,25.0,21.6,29.79,SSE,149,0.0,0.0,87,0.00,,OVC110,0.00,VWS V14.01,2014-01-19 11:03:00,
2014-01-19 06:08:00,25.1,21.8,29.79,SSE,149,0.0,0.0,87,0.00,,OVC110,0.00,VWS V14.01,2014-01-19 11:08:00,
2014-01-19 06:13:00,25.1,21.7,29.79,SSE,149,0.0,0.0,87,0.00,,OVC110,0.00,VWS V14.01,2014-01-19 11:13:00,
2014-01-19 06:18:00,25.1,21.6,29.79,SSE,149,0.0,0.0,86,0.00,,OVC110,0.00,VWS V14.01,2014-01-19 11:18:00,
2014-01-19 06:23:00,25.0,21.3,29.79,SSE,149,0.0,0.0,86,0.00,,OVC110,0.00,VWS V14.01,2014-01-19 11:23:00,
2014-01-19 06:28:00,25.0,21.5,29.79,SSE,149,0.0,0.0,86,0.00,,OVC110,0.00,VWS V14.01,2014-01-19 11:28:00,
2014-01-19 06:33:00,25.0,21.5,29.79,SSE,149,0.0,0.0,86,0.00,,OVC110,0.00,VWS V14.01,2014-01-19 11:33:00,
2014-01-19 06:38:00,25.0,21.5,29.79,SSE,149,0.0,0.0,86,0.00,,OVC110,0.00,VWS V14.01,2014-01-19 11:38:00,
2014-01-19 06:43:00,25.1,21.5,29.79,SSE,149,0.0,0.0,86,0.00,,OVC110,0.00,VWS V14.01,2014-01-19 11:43:00,
2014-01-19 06:48:00,25.0,21.5,29.79,SSE,149,0.0,0.0,86,0.00,,OVC110,0.00,VWS V14.01,2014-01-19 11:48:00,
2014-01-19 06:53:00,25.0,21.6,29.79,SSE,149,0.0,0.0,87,0.00,,OVC110,0.00,VWS V14.01,2014-01-19 11:53:00,
2014-01-19 06:58:00,24.9,21.8,29.79,SSE,149,0.0,0.0,88,0.00,,OVC110,0.00,VWS V14.01,2014-01-19 11:58:00,
2014-01-19 07:03:00,24.9,21.8,29.79,SSE,149,0.0,0.0,88,0.00,,OVC070,0.00,VWS V14.01,2014-01-19 12:03:00,
2014-01-19 07:08:00,24.8,21.7,29.79,SSE,149,0.0,0.0,88,0.00,,OVC070,0.00,VWS V14.01,2014-01-19 12:08:00,
2014-01-19 07:13:00,24.9,21.8,29.79,SSE,149,0.0,0.0,88,0.00,,OVC070,0.00,VWS V14.01,2014-01-19 12:13:00,
2014-01-19 07:18:00,24.8,21.6,29.79,SSE,149,0.0,0.0,88,0.00,,OVC070,0.00,VWS V14.01,2014-01-19 12:18:00,
2014-01-19 07:23:00,24.8,21.6,29.79,SSE,149,0.0,0.0,87,0.00,,OVC070,0.00,VWS V14.01,2014-01-19 12:23:00,
2014-01-19 07:28:00,24.8,21.8,29.79,SSE,149,0.0,0.0,88,0.00,,OVC070,0.00,VWS V14.01,2014-01-19 12:28:00,
2014-01-19 07:33:00,24.9,21.9,29.79,SSE,149,0.0,0.0,88,0.00,,OVC070,0.00,VWS V14.01,2014-01-19 12:33:00,
2014-01-19 07:38:00,24.8,21.6,29.79,SSE,149,0.0,0.0,87,0.00,,OVC070,0.00,VWS V14.01,2014-01-19 12:38:00,
2014-01-19 07:43:00,24.8,21.6,29.79,SSE,149,0.0,0.0,87,0.00,,OVC070,0.00,VWS V14.01,2014-01-19 12:43:00,
2014-01-19 07:49:00,24.6,21.3,29.79,SSE,149,0.0,0.0,87,0.00,,OVC070,0.00,VWS V14.01,2014-01-19 12:49:00,
2014-01-19 07:54:00,24.6,21.5,29.79,SSE,149,0.0,0.0,88,0.00,,OVC070,0.00,VWS V14.01,2014-01-19 12:54:00,
2014-01-19 07:59:00,24.5,21.4,29.79,SSE,149,0.0,0.0,88,0.00,,OVC070,0.00,VWS V14.01,2014-01-19 12:59:00,
2014-01-19 08:04:00,24.4,21.4,29.79,SSE,149,0.0,0.0,88,0.00,,OVC100,0.00,VWS V14.01,2014-01-19 13:04:00,
2014-01-19 08:09:00,24.4,21.4,29.79,SSE,149,0.0,0.0,88,0.00,,OVC100,0.00,VWS V14.01,2014-01-19 13:09:00,
2014-01-19 08:14:00,24.3,21.3,29.78,SSE,149,0.0,0.0,88,0.00,,OVC100,0.00,VWS V14.01,2014-01-19 13:14:00,
2014-01-19 08:19:00,24.3,21.4,29.78,SSE,149,0.0,0.0,88,0.00,,OVC100,0.00,VWS V14.01,2014-01-19 13:19:00,
2014-01-19 08:24:00,24.4,21.5,29.78,SSE,149,0.0,0.0,89,0.00,,OVC100,0.00,VWS V14.01,2014-01-19 13:24:00,
2014-01-19 08:29:00,24.6,21.5,29.79,SSE,149,0.0,0.0,88,0.00,,OVC100,0.00,VWS V14.01,2014-01-19 13:29:00,
2014-01-19 08:34:00,24.9,21.6,29.79,SSE,149,0.0,0.0,87,0.00,,OVC100,0.00,VWS V14.01,2014-01-19 13:34:00,
2014-01-19 08:39:00,25.0,21.5,29.79,SSE,149,0.0,0.0,86,0.00,,OVC100,0.00,VWS V14.01,2014-01-19 13:39:00,
2014-01-19 08:44:00,25.2,21.6,29.79,SSE,149,0.0,0.0,86,0.00,,OVC100,0.00,VWS V14.01,2014-01-19 13:44:00,
2014-01-19 08:49:00,25.3,21.4,29.79,SSE,149,0.0,0.0,85,0.00,,OVC100,0.00,VWS V14.01,2014-01-19 13:49:00,
2014-01-19 08:54:00,25.6,21.7,29.79,SSE,149,0.0,0.0,85,0.00,,OVC100,0.00,VWS V14.01,2014-01-19 13:54:00,
2014-01-19 08:59:00,25.7,21.5,29.79,SSE,149,0.0,0.0,84,0.00,,OVC100,0.00,VWS V14.01,2014-01-19 13:59:00,
2014-01-19 09:04:00,26.0,21.6,29.79,SSE,149,0.0,0.0,83,0.00,,BKN200,0.00,VWS V14.01,2014-01-19 14:04:00,
2014-01-19 09:09:00,26.1,21.6,29.79,SSE,149,0.0,0.0,83,0.00,,BKN200,0.00,VWS V14.01,2014-01-19 14:09:00,
2014-01-19 09:14:00,26.3,21.9,29.79,SSE,149,0.0,0.0,83,0.00,,BKN200,0.00,VWS V14.01,2014-01-19 14:14:00,
2014-01-19 09:19:00,26.5,21.5,29.79,SSE,149,0.0,0.0,81,0.00,,BKN200,0.00,VWS V14.01,2014-01-19 14:19:00,
2014-01-19 09:24:00,26.4,21.4,29.78,SSE,149,0.0,0.0,81,0.00,,BKN200,0.00,VWS V14.01,2014-01-19 14:24:00,
2014-01-19 09:29:00,26.6,21.7,29.79,SSE,149,0.0,0.0,81,0.00,,BKN200,0.00,VWS V14.01,2014-01-19 14:29:00,
2014-01-19 09:34:00,26.3,20.8,29.79,SSE,149,0.0,0.0,79,0.00,,BKN200,0.00,VWS V14.01,2014-01-19 14:34:00,
2014-01-19 09:39:00,26.5,20.9,29.78,SSE,149,0.0,0.0,79,0.00,,BKN200,0.00,VWS V14.01,2014-01-19 14:39:00,
2014-01-19 09:45:00,26.4,20.9,29.78,SSE,149,0.0,0.0,79,0.00,,BKN200,0.00,VWS V14.01,2014-01-19 14:45:00,
2014-01-19 09:50:00,26.4,20.7,29.78,SSE,149,0.0,0.0,79,0.00,,BKN200,0.00,VWS V14.01,2014-01-19 14:50:00,
2014-01-19 09:55:00,26.3,20.2,29.78,SSE,149,0.0,0.0,77,0.00,,BKN200,0.00,VWS V14.01,2014-01-19 14:55:00,
2014-01-19 10:00:00,26.5,20.6,29.78,SSE,149,0.0,0.0,78,0.00,,BKN200,0.00,VWS V14.01,2014-01-19 15:00:00,
2014-01-19 10:05:00,26.6,20.6,29.78,SSE,149,0.0,0.0,78,0.00,,BKN120,0.00,VWS V14.01,2014-01-19 15:05:00,
2014-01-19 10:10:00,26.9,21.0,29.78,SSE,149,0.0,0.0,78,0.00,,BKN120,0.00,VWS V14.01,2014-01-19 15:10:00,
2014-01-19 10:15:00,26.9,21.1,29.79,SSE,149,0.0,0.0,78,0.00,,BKN120,0.00,VWS V14.01,2014-01-19 15:15:00,
2014-01-19 10:20:00,27.0,21.3,29.78,SSE,149,0.0,0.0,79,0.00,,BKN120,0.00,VWS V14.01,2014-01-19 15:20:00,
2014-01-19 10:25:00,27.0,21.1,29.78,SSE,149,0.0,0.0,78,0.00,,BKN120,0.00,VWS V14.01,2014-01-19 15:25:00,
2014-01-19 10:30:00,27.1,21.3,29.77,SSE,149,0.0,0.0,78,0.00,,BKN120,0.00,VWS V14.01,2014-01-19 15:30:00,
2014-01-19 10:35:00,27.4,21.3,29.77,SSE,149,0.0,0.0,78,0.00,,BKN120,0.00,VWS V14.01,2014-01-19 15:35:00,
2014-01-19 10:40:00,27.7,21.6,29.77,SSE,149,0.0,0.0,77,0.00,,BKN120,0.00,VWS V14.01,2014-01-19 15:40:00,
2014-01-19 10:45:00,28.2,22.1,29.77,SSE,149,0.0,0.0,78,0.00,,BKN120,0.00,VWS V14.01,2014-01-19 15:45:00,
2014-01-19 10:50:00,28.4,21.7,29.76,SSE,149,0.0,0.0,76,0.00,,BKN120,0.00,VWS V14.01,2014-01-19 15:50:00,
2014-01-19 10:55:00,28.5,21.9,29.76,SSE,149,0.0,0.0,76,0.00,,BKN120,0.00,VWS V14.01,2014-01-19 15:55:00,
2014-01-19 11:00:00,28.4,21.7,29.76,SSE,149,0.0,0.0,76,0.00,,SCT120,0.00,VWS V14.01,2014-01-19 16:00:00,
2014-01-19 11:05:00,28.6,21.1,29.76,SSE,149,0.0,0.0,73,0.00,,SCT120,0.00,VWS V14.01,2014-01-19 16:05:00,
2014-01-19 11:10:00,28.8,21.6,29.75,SSE,149,0.0,0.0,74,0.00,,SCT120,0.00,VWS V14.01,2014-01-19 16:10:00,
2014-01-19 11:15:00,28.8,21.7,29.74,SSE,149,0.0,0.0,74,0.00,,SCT120,0.00,VWS V14.01,2014-01-19 16:15:00,
2014-01-19 11:20:00,28.9,22.6,29.74,SSE,149,0.0,0.0,77,0.00,,SCT120,0.00,VWS V14.01,2014-01-19 16:20:00,
2014-01-19 11:25:00,28.8,22.0,29.74,SSE,149,0.0,0.0,76,0.00,,SCT120,0.00,VWS V14.01,2014-01-19 16:25:00,
2014-01-19 11:30:00,28.8,22.0,29.74,SSE,149,0.0,0.0,75,0.00,,SCT120,0.00,VWS V14.01,2014-01-19 16:30:00,
2014-01-19 11:35:00,28.7,21.9,29.73,SSE,149,0.0,0.0,75,0.00,,SCT120,0.00,VWS V14.01,2014-01-19 16:35:00,
2014-01-19 11:41:00,28.8,22.0,29.73,SSE,149,0.0,0.0,75,0.00,,SCT120,0.00,VWS V14.01,2014-01-19 16:41:00,
2014-01-19 11:46:00,28.8,22.0,29.73,SSE,149,0.0,0.0,75,0.00,,SCT120,0.00,VWS V14.01,2014-01-19 16:46:00,
2014-01-19 11:51:00,28.8,22.5,29.73,SSE,149,0.0,0.0,77,0.00,,SCT120,0.00,VWS V14.01,2014-01-19 16:51:00,
2014-01-19 11:56:00,28.3,21.5,29.73,SSE,149,0.0,0.0,75,0.00,,SCT120,0.00,VWS V14.01,2014-01-19 16:56:00,
2014-01-19 12:01:00,28.5,22.0,29.72,SSE,149,0.0,0.0,76,0.00,,OVC060,0.00,VWS V14.01,2014-01-19 17:01:00,
2014-01-19 12:06:00,28.7,22.8,29.72,SSE,149,0.0,0.0,78,0.00,,OVC060,0.00,VWS V14.01,2014-01-19 17:06:00,
2014-01-19 12:11:00,28.4,21.4,29.71,SSE,149,0.0,0.0,75,0.00,,OVC060,0.00,VWS V14.01,2014-01-19 17:11:00,
2014-01-19 12:16:00,28.2,21.6,29.71,SSE,149,0.0,0.0,76,0.00,,OVC060,0.00,VWS V14.01,2014-01-19 17:16:00,
2014-01-19 12:21:00,28.4,22.5,29.71,SSE,149,0.0,0.0,78,0.00,,OVC060,0.00,VWS V14.01,2014-01-19 17:21:00,
2014-01-19 12:26:00,28.5,22.0,29.70,SSE,149,0.0,0.0,76,0.00,,OVC060,0.00,VWS V14.01,2014-01-19 17:26:00,
2014-01-19 12:31:00,28.9,22.5,29.70,SSE,149,0.0,0.0,77,0.00,,OVC060,0.00,VWS V14.01,2014-01-19 17:31:00,
2014-01-19 12:36:00,29.2,22.7,29.69,SSE,149,0.0,0.0,76,0.00,,OVC060,0.00,VWS V14.01,2014-01-19 17:36:00,
2014-01-19 12:41:00,29.7,23.3,29.69,SSE,149,0.0,0.0,77,0.00,,OVC060,0.00,VWS V14.01,2014-01-19 17:41:00,
2014-01-19 12:46:00,30.0,23.5,29.69,SSE,149,0.0,0.0,77,0.00,,OVC060,0.00,VWS V14.01,2014-01-19 17:46:00,
2014-01-19 12:51:00,30.0,23.4,29.68,SSE,149,0.0,0.0,76,0.00,,OVC060,0.00,VWS V14.01,2014-01-19 17:51:00,
2014-01-19 12:56:00,29.9,22.8,29.68,SSE,149,0.0,0.0,74,0.00,,OVC060,0.00,VWS V14.01,2014-01-19 17:56:00,
2014-01-19 13:01:00,29.9,23.8,29.67,SSE,149,0.0,0.0,78,0.00,,OVC055,0.00,VWS V14.01,2014-01-19 18:01:00,
2014-01-19 13:06:00,30.2,23.6,29.67,SSE,149,0.0,0.0,76,0.00,,OVC055,0.00,VWS V14.01,2014-01-19 18:06:00,
2014-01-19 13:11:00,30.3,23.5,29.66,SSE,149,0.0,0.0,75,0.00,,OVC055,0.00,VWS V14.01,2014-01-19 18:11:00,
2014-01-19 13:16:00,30.4,23.8,29.66,SSE,149,0.0,0.0,76,0.00,,OVC055,0.00,VWS V14.01,2014-01-19 18:16:00,
2014-01-19 13:21:00,30.4,23.2,29.66,SSE,149,0.0,0.0,74,0.00,,OVC055,0.00,VWS V14.01,2014-01-19 18:21:00,
2014-01-19 13:26:00,30.5,23.8,29.65,SSE,149,0.0,0.0,76,0.00,,OVC055,0.00,VWS V14.01,2014-01-19 18:26:00,
2014-01-19 13:31:00,30.7,24.1,29.65,SSE,149,0.0,0.0,76,0.00,,OVC055,0.00,VWS V14.01,2014-01-19 18:31:00,
2014-01-19 13:37:00,30.8,23.7,29.65,SSE,149,0.0,0.0,75,0.00,,OVC055,0.00,VWS V14.01,2014-01-19 18:37:00,
2014-01-19 13:42:00,30.9,24.1,29.65,SSE,149,0.0,0.0,76,0.00,,OVC055,0.00,VWS V14.01,2014-01-19 18:42:00,
2014-01-19 13:47:00,30.9,24.1,29.64,SSE,149,0.0,0.0,76,0.00,,OVC055,0.00,VWS V14.01,2014-01-19 18:47:00,
2014-01-19 13:52:00,31.2,24.1,29.64,SSE,149,0.0,0.0,75,0.00,,OVC055,0.00,VWS V14.01,2014-01-19 18:52:00,
2014-01-19 13:57:00,31.2,24.1,29.65,SSE,149,0.0,0.0,75,0.00,,OVC055,0.00,VWS V14.01,2014-01-19 18:57:00,
2014-01-19 14:02:00,31.3,24.2,29.65,SSE,149,0.0,0.0,75,0.00,,SCT200,0.00,VWS V14.01,2014-01-19 19:02:00,
2014-01-19 14:07:00,31.4,24.1,29.65,SSE,149,0.0,0.0,74,0.00,,SCT200,0.00,VWS V14.01,2014-01-19 19:07:00,
2014-01-19 14:12:00,31.4,23.6,29.65,SSE,149,0.0,0.0,72,0.00,,SCT200,0.00,VWS V14.01,2014-01-19 19:12:00,
2014-01-19 14:17:00,31.5,24.0,29.65,SSE,149,0.0,0.0,74,0.00,,SCT200,0.00,VWS V14.01,2014-01-19 19:17:00,
2014-01-19 14:22:00,31.3,24.7,29.65,SSE,149,0.0,0.0,76,0.00,,SCT200,0.00,VWS V14.01,2014-01-19 19:22:00,
2014-01-19 14:27:00,31.1,24.4,29.65,SSE,149,0.0,0.0,76,0.00,,SCT200,0.00,VWS V14.01,2014-01-19 19:27:00,
2014-01-19 14:32:00,30.9,24.4,29.65,SSE,149,0.0,0.0,76,0.00,,SCT200,0.00,VWS V14.01,2014-01-19 19:32:00,
2014-01-19 14:38:00,30.8,23.6,29.65,SSE,149,0.0,0.0,74,0.00,,SCT200,0.00,VWS V14.01,2014-01-19 19:38:00,
2014-01-19 14:43:00,31.3,24.7,29.65,SSE,149,0.0,0.0,76,0.00,,SCT200,0.00,VWS V14.01,2014-01-19 19:43:00,
2014-01-19 14:48:00,31.5,25.1,29.65,SSE,149,0.0,0.0,77,0.00,,SCT200,0.00,VWS V14.01,2014-01-19 19:48:00,
2014-01-19 14:53:00,31.7,24.9,29.65,SSE,149,0.0,0.0,76,0.00,,SCT200,0.00,VWS V14.01,2014-01-19 19:53:00,
2014-01-19 14:58:00,31.9,24.8,29.65,SSE,149,0.0,0.0,75,0.00,,SCT200,0.00,VWS V14.01,2014-01-19 19:58:00,
2014-01-19 15:03:00,32.2,25.2,29.64,SSE,149,0.0,0.0,75,0.00,,FEW090,0.00,VWS V14.01,2014-01-19 20:03:00,
2014-01-19 15:08:00,32.2,24.3,29.64,SSE,149,0.0,0.0,72,0.00,,FEW090,0.00,VWS V14.01,2014-01-19 20:08:00,
2014-01-19 15:13:00,32.3,25.0,29.65,SSE,149,0.0,0.0,74,0.00,,FEW090,0.00,VWS V14.01,2014-01-19 20:13:00,
2014-01-19 15:18:00,32.5,25.3,29.64,SSE,149,0.0,0.0,74,0.00,,FEW090,0.00,VWS V14.01,2014-01-19 20:18:00,
2014-01-19 15:23:00,32.1,24.6,29.64,SSE,149,0.0,0.0,74,0.00,,FEW090,0.00,VWS V14.01,2014-01-19 20:23:00,
2014-01-19 15:28:00,32.3,24.9,29.64,SSE,149,0.0,0.0,74,0.00,,FEW090,0.00,VWS V14.01,2014-01-19 20:28:00,
2014-01-19 15:33:00,32.3,25.2,29.64,SSE,149,0.0,0.0,75,0.00,,FEW090,0.00,VWS V14.01,2014-01-19 20:33:00,
2014-01-19 15:38:00,32.3,25.1,29.64,SSE,149,0.0,0.0,74,0.00,,FEW090,0.00,VWS V14.01,2014-01-19 20:38:00,
2014-01-19 15:43:00,32.2,25.2,29.64,SSE,149,0.0,0.0,75,0.00,,FEW090,0.00,VWS V14.01,2014-01-19 20:43:00,
2014-01-19 15:48:00,32.2,24.9,29.64,SSE,149,0.0,0.0,74,0.00,,FEW090,0.00,VWS V14.01,2014-01-19 20:48:00,
2014-01-19 15:53:00,32.3,25.0,29.64,SSE,149,0.0,0.0,74,0.00,,FEW090,0.00,VWS V14.01,2014-01-19 20:53:00,
2014-01-19 15:58:00,32.2,24.7,29.64,SSE,149,0.0,0.0,74,0.00,,FEW090,0.00,VWS V14.01,2014-01-19 20:58:00,
2014-01-19 16:03:00,32.3,24.8,29.65,SSE,149,0.0,0.0,73,0.00,,SCT055,0.00,VWS V14.01,2014-01-19 21:03:00,
2014-01-19 16:08:00,32.1,24.9,29.65,SSE,149,0.0,0.0,74,0.00,,SCT055,0.00,VWS V14.01,2014-01-19 21:08:00,
2014-01-19 16:13:00,32.0,24.9,29.65,SSE,149,0.0,0.0,75,0.00,,SCT055,0.00,VWS V14.01,2014-01-19 21:13:00,
2014-01-19 16:18:00,31.9,24.6,29.65,SSE,149,0.0,0.0,74,0.00,,SCT055,0.00,VWS V14.01,2014-01-19 21:18:00,
2014-01-19 16:23:00,31.8,24.5,29.65,SSE,149,0.0,0.0,74,0.00,,SCT055,0.00,VWS V14.01,2014-01-19 21:23:00,
2014-01-19 16:28:00,31.8,24.6,29.64,SSE,149,0.0,0.0,74,0.00,,SCT055,0.00,VWS V14.01,2014-01-19 21:28:00,
2014-01-19 16:34:00,31.7,25.0,29.65,SSE,149,0.0,0.0,76,0.00,,SCT055,0.00,VWS V14.01,2014-01-19 21:34:00,
2014-01-19 16:39:00,31.5,24.8,29.64,SSE,149,0.0,0.0,76,0.00,,SCT055,0.00,VWS V14.01,2014-01-19 21:39:00,
2014-01-19 16:44:00,31.4,24.6,29.64,SSE,149,0.0,0.0,76,0.00,,SCT055,0.00,VWS V14.01,2014-01-19 21:44:00,
2014-01-19 16:49:00,31.5,25.0,29.64,SSE,149,0.0,0.0,76,0.00,,SCT055,0.00,VWS V14.01,2014-01-19 21:49:00,
2014-01-19 16:54:00,31.4,24.7,29.64,SSE,149,0.0,0.0,76,0.00,,SCT055,0.00,VWS V14.01,2014-01-19 21:54:00,
2014-01-19 16:59:00,31.3,24.8,29.65,SSE,149,0.0,0.0,76,0.00,,SCT055,0.00,VWS V14.01,2014-01-19 21:59:00,
2014-01-19 17:04:00,31.3,24.5,29.66,SSE,149,0.0,0.0,76,0.00,,SCT100,0.00,VWS V14.01,2014-01-19 22:04:00,
2014-01-19 17:09:00,31.3,24.9,29.66,SSE,149,0.0,0.0,77,0.00,,SCT100,0.00,VWS V14.01,2014-01-19 22:09:00,
2014-01-19 17:14:00,31.3,24.9,29.66,SSE,149,0.0,0.0,77,0.00,,SCT100,0.00,VWS V14.01,2014-01-19 22:14:00,
2014-01-19 17:19:00,31.1,24.9,29.66,SSE,149,0.0,0.0,78,0.00,,SCT100,0.00,VWS V14.01,2014-01-19 22:19:00,
2014-01-19 17:24:00,31.0,24.8,29.66,SSE,149,0.0,0.0,78,0.00,,SCT100,0.00,VWS V14.01,2014-01-19 22:24:00,
2014-01-19 17:29:00,30.9,24.9,29.66,SSE,149,0.0,0.0,78,0.00,,SCT100,0.00,VWS V14.01,2014-01-19 22:29:00,
2014-01-19 17:34:00,31.0,24.6,29.66,SSE,149,0.0,0.0,77,0.00,,SCT100,0.00,VWS V14.01,2014-01-19 22:34:00,
2014-01-19 17:39:00,30.9,24.8,29.66,SSE,149,0.0,0.0,78,0.00,,SCT100,0.00,VWS V14.01,2014-01-19 22:39:00,
2014-01-19 17:44:00,31.0,24.6,29.66,SSE,149,0.0,0.0,77,0.00,,SCT100,0.00,VWS V14.01,2014-01-19 22:44:00,
2014-01-19 17:49:00,30.9,24.5,29.66,SSE,149,0.0,0.0,77,0.00,,SCT100,0.00,VWS V14.01,2014-01-19 22:49:00,
2014-01-19 17:55:00,31.0,24.9,29.66,SSE,149,0.0,0.0,78,0.00,,SCT100,0.00,VWS V14.01,2014-01-19 22:55:00,
2014-01-19 18:00:00,30.9,25.0,29.66,SSE,149,0.0,0.0,78,0.00,,SCT100,0.00,VWS V14.01,2014-01-19 23:00:00,
2014-01-19 18:05:00,30.8,24.5,29.67,SSE,149,0.0,0.0,77,0.00,,SCT100,0.00,VWS V14.01,2014-01-19 23:05:00,
2014-01-19 18:10:00,30.9,24.6,29.66,SSE,149,0.0,0.0,77,0.00,,SCT100,0.00,VWS V14.01,2014-01-19 23:10:00,
2014-01-19 18:15:00,30.9,24.5,29.67,SSE,149,0.0,0.0,77,0.00,,SCT100,0.00,VWS V14.01,2014-01-19 23:15:00,
2014-01-19 18:20:00,31.0,24.7,29.67,SSE,149,0.0,0.0,77,0.00,,SCT100,0.00,VWS V14.01,2014-01-19 23:20:00,
2014-01-19 18:25:00,31.1,24.5,29.68,SSE,149,0.0,0.0,76,0.00,,SCT100,0.00,VWS V14.01,2014-01-19 23:25:00,
2014-01-19 18:30:00,31.1,24.9,29.67,SSE,149,0.0,0.0,78,0.00,,SCT100,0.00,VWS V14.01,2014-01-19 23:30:00,
2014-01-19 18:35:00,31.1,24.4,29.67,SSE,149,0.0,0.0,76,0.00,,SCT100,0.00,VWS V14.01,2014-01-19 23:35:00,
2014-01-19 18:40:00,31.1,24.9,29.67,SSE,149,0.0,0.0,78,0.00,,SCT100,0.00,VWS V14.01,2014-01-19 23:40:00,
2014-01-19 18:45:00,31.2,25.0,29.67,SSE,149,0.0,0.0,78,0.00,,SCT100,0.00,VWS V14.01,2014-01-19 23:45:00,
2014-01-19 18:50:00,31.1,24.8,29.67,SSE,149,0.0,0.0,77,0.00,,SCT100,0.00,VWS V14.01,2014-01-19 23:50:00,
2014-01-19 18:55:00,31.2,24.7,29.68,SSE,149,0.0,0.0,77,0.00,,SCT100,0.00,VWS V14.01,2014-01-19 23:55:00,
2014-01-19 19:00:00,31.2,25.0,29.67,SSE,149,0.0,0.0,78,0.00,,SCT150,0.00,VWS V14.01,2014-01-20 00:00:00,
2014-01-19 19:05:00,31.2,25.1,29.68,SSE,149,0.0,0.0,78,0.00,,SCT150,0.00,VWS V14.01,2014-01-20 00:05:00,
2014-01-19 19:10:00,31.0,25.2,29.68,SSE,149,0.0,0.0,79,0.00,,SCT150,0.00,VWS V14.01,2014-01-20 00:10:00,
2014-01-19 19:15:00,31.0,25.3,29.68,SSE,149,0.0,0.0,79,0.00,,SCT150,0.00,VWS V14.01,2014-01-20 00:15:00,
2014-01-19 19:20:00,31.1,25.3,29.68,SSE,149,0.0,0.0,79,0.00,,SCT150,0.00,VWS V14.01,2014-01-20 00:20:00,
2014-01-19 19:25:00,31.2,25.5,29.67,SSE,149,0.0,0.0,79,0.00,,SCT150,0.00,VWS V14.01,2014-01-20 00:25:00,
2014-01-19 19:30:00,31.4,25.5,29.67,SSE,149,0.0,0.0,79,0.00,,SCT150,0.00,VWS V14.01,2014-01-20 00:30:00,
2014-01-19 19:35:00,31.5,25.8,29.67,SSE,149,0.0,0.0,79,0.00,,SCT150,0.00,VWS V14.01,2014-01-20 00:35:00,
2014-01-19 19:41:00,31.6,25.8,29.67,SSE,149,0.0,0.0,79,0.00,,SCT150,0.00,VWS V14.01,2014-01-20 00:41:00,
2014-01-19 19:46:00,31.6,25.7,29.67,SSE,149,0.0,0.0,79,0.00,,SCT150,0.00,VWS V14.01,2014-01-20 00:46:00,
2014-01-19 19:51:00,31.7,25.8,29.67,SSE,149,0.0,0.0,79,0.00,,SCT150,0.00,VWS V14.01,2014-01-20 00:51:00,
2014-01-19 19:56:00,31.7,25.7,29.67,SSE,149,0.0,0.0,78,0.00,,SCT150,0.00,VWS V14.01,2014-01-20 00:56:00,
2014-01-19 20:01:00,31.7,26.0,29.67,SSE,149,0.0,0.0,79,0.00,,SCT090,0.00,VWS V14.01,2014-01-20 01:01:00,
2014-01-19 20:06:00,31.7,25.9,29.67,SSE,149,0.0,0.0,79,0.00,,SCT090,0.00,VWS V14.01,2014-01-20 01:06:00,
2014-01-19 20:11:00,31.7,25.7,29.67,SSE,149,0.0,0.0,78,0.00,,SCT090,0.00,VWS V14.01,2014-01-20 01:11:00,
2014-01-19 20:16:00,31.8,26.1,29.66,SSE,149,0.0,0.0,79,0.00,,SCT090,0.00,VWS V14.01,2014-01-20 01:16:00,
2014-01-19 20:21:00,31.9,26.0,29.66,SSE,149,0.0,0.0,78,0.00,,SCT090,0.00,VWS V14.01,2014-01-20 01:21:00,
2014-01-19 20:26:00,32.0,26.1,29.66,SSE,149,0.0,0.0,79,0.00,,SCT090,0.00,VWS V14.01,2014-01-20 01:26:00,
2014-01-19 20:31:00,32.0,26.5,29.66,SSE,149,0.0,0.0,80,0.00,,SCT090,0.00,VWS V14.01,2014-01-20 01:31:00,
2014-01-19 20:36:00,32.1,26.2,29.66,SSE,149,0.0,0.0,79,0.00,,SCT090,0.00,VWS V14.01,2014-01-20 01:36:00,
2014-01-19 20:41:00,32.1,26.4,29.66,SSE,149,0.0,0.0,79,0.00,,SCT090,0.00,VWS V14.01,2014-01-20 01:41:00,
2014-01-19 20:46:00,32.0,26.1,29.66,SSE,149,0.0,0.0,78,0.00,,SCT090,0.00,VWS V14.01,2014-01-20 01:46:00,
2014-01-19 20:52:00,31.9,26.3,29.66,SSE,149,0.0,0.0,80,0.00,,SCT090,0.00,VWS V14.01,2014-01-20 01:52:00,
2014-01-19 20:57:00,31.8,26.4,29.65,SSE,149,0.0,0.0,80,0.00,,SCT090,0.00,VWS V14.01,2014-01-20 01:57:00,
2014-01-19 21:02:00,31.6,25.9,29.66,SSE,149,0.0,0.0,79,0.00,,SCT150,0.00,VWS V14.01,2014-01-20 02:02:00,
2014-01-19 21:07:00,31.8,26.4,29.66,SSE,149,0.0,0.0,80,0.00,,SCT150,0.00,VWS V14.01,2014-01-20 02:07:00,
2014-01-19 21:12:00,31.6,26.2,29.66,SSE,149,0.0,0.0,80,0.00,,SCT150,0.00,VWS V14.01,2014-01-20 02:12:00,
2014-01-19 21:17:00,31.7,26.3,29.66,SSE,149,0.0,0.0,80,0.00,,SCT150,0.00,VWS V14.01,2014-01-20 02:17:00,
2014-01-19 21:22:00,31.6,26.6,29.67,SSE,149,0.0,0.0,82,0.00,,SCT150,0.00,VWS V14.01,2014-01-20 02:22:00,
2014-01-19 21:27:00,31.7,26.4,29.66,SSE,149,0.0,0.0,81,0.00,,SCT150,0.00,VWS V14.01,2014-01-20 02:27:00,
2014-01-19 21:32:00,31.5,26.3,29.67,SSE,149,0.0,0.0,81,0.00,,SCT150,0.00,VWS V14.01,2014-01-20 02:32:00,
2014-01-19 21:37:00,31.7,26.6,29.66,SSE,149,0.0,0.0,81,0.00,,SCT150,0.00,VWS V14.01,2014-01-20 02:37:00,
2014-01-19 21:42:00,31.6,26.6,29.66,SSE,149,0.0,0.0,81,0.00,,SCT150,0.00,VWS V14.01,2014-01-20 02:42:00,
2014-01-19 21:47:00,31.8,26.6,29.66,SSE,149,0.0,0.0,81,0.00,,SCT150,0.00,VWS V14.01,2014-01-20 02:47:00,
2014-01-19 21:52:00,31.9,26.6,29.66,SSE,149,0.0,0.0,81,0.00,,SCT150,0.00,VWS V14.01,2014-01-20 02:52:00,
2014-01-19 21:57:00,31.9,26.7,29.66,SSE,149,0.0,0.0,81,0.00,,SCT150,0.00,VWS V14.01,2014-01-20 02:57:00,
2014-01-19 22:02:00,31.9,26.7,29.65,SSE,149,0.0,0.0,81,0.00,,SCT150,0.00,VWS V14.01,2014-01-20 03:02:00,
2014-01-19 22:07:00,31.9,26.7,29.65,SSE,149,0.0,0.0,81,0.00,,SCT150,0.00,VWS V14.01,2014-01-20 03:07:00,
2014-01-19 22:12:00,32.0,26.6,29.65,SSE,149,0.0,0.0,80,0.00,,SCT150,0.00,VWS V14.01,2014-01-20 03:12:00,
2014-01-19 22:17:00,32.0,26.6,29.65,SSE,149,0.0,0.0,80,0.00,,SCT150,0.00,VWS V14.01,2014-01-20 03:17:00,
2014-01-19 22:22:00,32.0,26.7,29.65,SSE,149,0.0,0.0,81,0.00,,SCT150,0.00,VWS V14.01,2014-01-20 03:22:00,
2014-01-19 22:27:00,31.8,26.4,29.65,SSE,149,0.0,0.0,80,0.00,,SCT150,0.00,VWS V14.01,2014-01-20 03:27:00,
2014-01-19 22:32:00,31.8,26.7,29.65,SSE,149,0.0,0.0,81,0.00,,SCT150,0.00,VWS V14.01,2014-01-20 03:32:00,
2014-01-19 22:37:00,32.2,26.5,29.64,SSE,149,0.0,0.0,79,0.00,,SCT150,0.00,VWS V14.01,2014-01-20 03:37:00,
2014-01-19 22:43:00,32.5,26.5,29.64,SSE,149,0.0,0.0,78,0.00,,SCT150,0.00,VWS V14.01,2014-01-20 03:43:00,
2014-01-19 22:48:00,32.8,26.8,29.64,SSE,149,0.0,0.0,78,0.00,,SCT150,0.00,VWS V14.01,2014-01-20 03:48:00,
2014-01-19 22:53:00,32.7,27.0,29.64,SSE,149,0.0,0.0,79,0.00,,SCT150,0.00,VWS V14.01,2014-01-20 03:53:00,
2014-01-19 22:58:00,32.8,26.7,29.64,SSE,149,0.0,0.0,78,0.00,,SCT150,0.00,VWS V14.01,2014-01-20 03:58:00,
2014-01-19 23:03:00,32.7,26.8,29.64,SSE,149,0.0,0.0,79,0.00,,CLR,0.00,VWS V14.01,2014-01-20 04:03:00,
2014-01-19 23:08:00,33.1,26.8,29.64,SSE,149,0.0,0.0,77,0.00,,CLR,0.00,VWS V14.01,2014-01-20 04:08:00,
2014-01-19 23:13:00,33.1,26.8,29.64,SSE,149,0.0,0.0,78,0.00,,CLR,0.00,VWS V14.01,2014-01-20 04:13:00,
2014-01-19 23:18:00,33.3,26.7,29.64,SSE,149,0.0,0.0,76,0.00,,CLR,0.00,VWS V14.01,2014-01-20 04:18:00,
2014-01-19 23:23:00,33.5,26.7,29.64,SSE,149,0.0,0.0,76,0.00,,CLR,0.00,VWS V14.01,2014-01-20 04:23:00,
2014-01-19 23:28:00,33.7,26.8,29.64,SSE,149,0.0,0.0,75,0.00,,CLR,0.00,VWS V14.01,2014-01-20 04:28:00,
2014-01-19 23:33:00,33.8,26.7,29.64,SSE,149,0.0,0.0,75,0.00,,CLR,0.00,VWS V14.01,2014-01-20 04:33:00,
2014-01-19 23:38:00,33.7,26.6,29.64,SSE,149,0.0,0.0,75,0.00,,CLR,0.00,VWS V14.01,2014-01-20 04:38:00,
2014-01-19 23:43:00,33.9,26.5,29.64,SSE,149,0.0,0.0,74,0.00,,CLR,0.00,VWS V14.01,2014-01-20 04:43:00,
2014-01-19 23:48:00,34.0,26.6,29.64,SSE,149,0.0,0.0,74,0.00,,CLR,0.00,VWS V14.01,2014-01-20 04:48:00,
2014-01-19 23:53:00,34.1,26.4,29.64,SSE,149,0.0,0.0,73,0.00,,CLR,0.00,VWS V14.01,2014-01-20 04:53:00,
2014-01-19 23:58:00,34.1,26.4,29.64,SSE,149,0.0,0.0,73,0.00,,CLR,0.00,VWS V14.01,2014-01-20 04:58:00,